Weather History for Valparaiso, FL

Change the Weather History Date:

Tuesday, August 27, 2013

  Actual Average Record
Temperature  
Mean Temperature 77 °F -  
Max Temperature 87 °F 90 °F 98 °F (1963)
Min Temperature 67 °F 69 °F 61 °F (1969)
Cooling Degree Days 12    
Growing Degree Days 27 (Base 50)    
Moisture  
Dew Point 67 °F    
Average Humidity 70    
Maximum Humidity 91    
Minimum Humidity 47    
Precipitation  
Precipitation 0.00 in - - ()
Sea Level Pressure  
Sea Level Pressure 30.09 in    
Wind  
Wind Speed 4 mph (NE)    
Max Wind Speed 9 mph    
Max Gust Speed -    
Visibility 10 miles    
Events      
Averages and records for this station are not official NWS values.
T = Trace of Precipitation, MM = Missing Value Source: NWS Daily Summary

Daily Weather History Graph

Daily Weather History Graph

Search for Another Location

Airport:

Trip Planner

Search our weather history database for the weather conditions in past years. The results will help you decide how hot, cold, wet, or windy it might be!

Date:

Astronomy

Aug. 27, 2013 Rise Set
Actual Time 6:20 AM CDT 7:14 PM CDT
Civil Twilight 5:55 AM CDT 7:39 PM CDT
Nautical Twilight 5:26 AM CDT 8:08 PM CDT
Astronomical Twilight 4:56 AM CDT 8:38 PM CDT
Moon 11:38 PM CDT (8/27) 12:46 PM CDT (8/27)
Length of Visible Light 13h 43m
Length of Day
12h 54m
Waning Gibbous, 57% of the Moon is Illuminated
Aug 27
Waning Gibbous
Aug 28
Last Quarter
Sep 5
New
Sep 12
First Quarter
Sep 19
Full

Hourly Weather History & Observations

Time (CDT) Temp. Heat Index Dew Point Humidity Pressure Visibility Wind Dir Wind Speed Gust Speed Precip Events Conditions
12:56 AM 71.8 °F - 64.9 °F 79% 30.14 in 10.0 mi NNE 4.6 mph - N/A   Clear
1:59 AM 70.3 °F - 64.9 °F 83% 30.12 in 10.0 mi North 3.5 mph - N/A   Clear
2:55 AM 69.8 °F - 64.8 °F 84% 30.11 in 10.0 mi NNE 4.6 mph - N/A   Clear
3:55 AM 70.0 °F - 65.5 °F 86% 30.11 in 10.0 mi NNE 3.5 mph - N/A   Clear
4:55 AM 68.2 °F - 65.1 °F 90% 30.10 in 10.0 mi North 4.6 mph - N/A   Clear
5:55 AM 67.3 °F - 64.6 °F 91% 30.10 in 10.0 mi NNE 4.6 mph - N/A   Partly Cloudy
6:55 AM 67.6 °F - 64.9 °F 91% 30.12 in 10.0 mi North 3.5 mph - N/A   Partly Cloudy
7:57 AM 72.7 °F - 66.4 °F 81% 30.13 in 10.0 mi NNE 6.9 mph - N/A   Partly Cloudy
8:55 AM 78.4 °F - 69.4 °F 74% 30.14 in 10.0 mi NE 6.9 mph - N/A   Partly Cloudy
9:55 AM 81.5 °F 85.9 °F 71.8 °F 72% 30.13 in 10.0 mi ESE 4.6 mph - N/A   Partly Cloudy
10:09 AM 82.4 °F 87.2 °F 71.6 °F 70% 30.11 in 10.0 mi ESE 4.6 mph - N/A   Scattered Clouds
10:55 AM 83.7 °F 86.7 °F 68.0 °F 59% 30.12 in 10.0 mi Variable 1.2 mph - N/A   Scattered Clouds
11:55 AM 84.4 °F 86.8 °F 66.7 °F 55% 30.11 in 10.0 mi Variable 3.5 mph - N/A   Scattered Clouds
12:55 PM 86.2 °F 88.4 °F 65.8 °F 51% 30.10 in 10.0 mi South 5.8 mph - N/A   Scattered Clouds
1:55 PM 86.9 °F 88.3 °F 64.2 °F 47% 30.08 in 10.0 mi South 8.1 mph - N/A   Scattered Clouds
2:55 PM 87.1 °F 89.2 °F 66.0 °F 49% 30.07 in 10.0 mi Variable 5.8 mph - N/A   Partly Cloudy
3:55 PM 86.9 °F 88.6 °F 65.3 °F 48% 30.06 in 10.0 mi South 9.2 mph - N/A   Scattered Clouds
4:55 PM 86.7 °F 88.4 °F 65.1 °F 48% 30.04 in 10.0 mi SW 5.8 mph - N/A   Scattered Clouds
5:55 PM 85.5 °F 87.9 °F 66.6 °F 53% 30.04 in 10.0 mi SW 4.6 mph - N/A   Scattered Clouds
6:55 PM 83.1 °F 85.9 °F 67.5 °F 59% 30.04 in 10.0 mi SW 3.5 mph - N/A   Scattered Clouds
7:55 PM 80.1 °F 82.8 °F 68.7 °F 68% 30.04 in 10.0 mi Calm Calm - N/A   Scattered Clouds
8:55 PM 78.3 °F - 68.7 °F 72% 30.05 in 10.0 mi Calm Calm - N/A   Scattered Clouds
9:55 PM 75.9 °F - 68.5 °F 78% 30.06 in 10.0 mi Calm Calm - N/A   Partly Cloudy
10:55 PM 74.3 °F - 68.7 °F 83% 30.06 in 10.0 mi Calm Calm - N/A   Partly Cloudy
11:55 PM 74.5 °F - 68.0 °F 80% 30.05 in 10.0 mi Calm Calm - N/A   Partly Cloudy